Wind_Speed
35 36 37 38 38 38 38 38 38 38 38 38 37 37 37 38 38 39 39 39 39 39 39 39 39 40 40 41 41 42 42 42 43 42 43 43 43 42 41 41 41 42 42
34 35 35 36 36 36 36 36 36 37 37 37 37 38 38 39 39 39 39 39 39 40 40 41 41 41 42 42 42 42 42 42 43 43 43 43 42 41 41 41 41 41 42
33 33 34 35 35 35 34 34 35 35 36 36 37 37 38 38 38 39 39 39 39 40 40 41 42 42 42 42 42 42 42 43 43 42 42 42 41 41 41 41 41 41 42
33 34 35 35 35 35 34 35 34 35 35 36 37 37 37 38 39 39 40 40 40 41 41 41 42 42 42 42 42 42 43 43 43 42 42 42 42 42 42 42 42 42 43
34 34 35 35 35 35 35 35 35 35 36 36 37 37 38 38 39 40 40 41 41 41 41 41 42 42 42 42 42 42 42 42 42 42 42 42 42 42 42 43 44 45 46
34 34 35 35 35 35 35 36 36 37 37 38 38 38 38 39 39 40 41 41 42 42 42 42 43 43 43 43 43 43 43 42 42 42 42 43 43 43 44 45 46 46 47
34 34 35 35 35 35 35 36 37 37 38 38 38 38 39 39 40 40 41 42 42 42 42 42 42 43 43 44 44 44 43 43 43 43 43 43 44 45 46 47 48 48 49
33 34 34 34 35 35 36 36 37 38 38 38 39 39 39 40 41 41 42 42 42 42 43 43 43 43 43 44 44 43 43 43 44 44 44 44 45 46 47 48 49 49 50
34 34 35 35 35 36 36 37 37 38 39 39 39 40 40 41 42 42 42 42 43 43 43 43 43 43 44 44 44 43 43 44 44 44 44 45 46 47 48 49 49 49 50
35 35 36 36 36 37 38 38 39 40 40 40 40 41 41 42 42 43 43 43 43 43 43 43 44 44 44 44 44 44 43 43 44 44 45 46 46 47 48 49 49 50 50
36 37 37 38 38 39 40 40 41 42 42 42 42 42 43 43 43 43 44 44 44 44 43 43 44 44 44 43 43 43 43 43 44 44 45 46 47 48 48 49 49 50 50
38 38 39 39 40 41 41 42 42 43 43 42 42 43 43 44 44 45 45 45 44 44 44 43 43 43 43 43 43 43 44 44 44 45 45 46 47 47 47 48 48 48 48
40 40 41 41 42 42 43 43 43 43 43 43 43 44 44 44 45 46 46 45 44 44 44 44 43 42 43 43 43 43 44 45 45 45 45 46 46 46 46 46 46 46 46
41 42 42 43 43 43 43 43 43 43 43 44 44 44 44 45 45 45 45 45 45 44 43 43 42 43 43 43 43 43 44 45 45 45 45 45 45 45 45 45 45 45 45
43 43 44 44 44 44 43 43 43 43 43 44 44 44 44 44 44 45 45 44 43 43 42 42 42 42 42 42 43 44 44 44 44 44 44 44 44 44 44 44 44 44 44
44 44 44 45 45 45 44 44 44 44 43 44 44 44 44 44 44 44 43 43 43 42 42 42 42 42 42 42 43 43 43 43 42 43 43 44 43 43 43 44 44 44 44
45 45 45 45 45 45 45 45 45 44 44 44 44 44 43 43 43 43 42 42 42 42 42 42 42 42 42 42 42 42 42 42 42 42 42 42 42 42 42 43 44 44 44
46 46 46 46 46 46 46 46 46 45 44 43 43 43 43 43 42 42 41 41 41 41 41 42 42 41 41 41 41 41 41 41 41 41 41 41 41 42 42 43 44 44 43
46 47 47 47 47 46 46 46 45 44 44 43 42 42 42 42 42 42 41 41 41 41 41 41 41 41 40 40 40 40 40 41 41 41 40 40 41 41 42 43 43 43 42
47 47 47 47 46 46 45 44 44 43 42 42 41 41 41 41 41 41 41 41 41 41 40 40 40 39 39 39 39 39 39 39 39 39 39 39 39 40 41 41 41 41 39
46 46 46 45 45 44 44 43 42 42 41 41 41 41 40 40 40 40 40 40 40 39 38 38 38 38 38 38 38 38 38 38 38 38 38 38 39 39 40 40 40 39 37
46 45 44 44 43 43 43 42 41 40 40 40 40 40 40 40 39 39 39 38 38 37 37 37 37 37 37 38 38 38 38 37 37 37 37 37 38 39 39 38 37 36 36
44 43 43 42 42 41 40 40 39 39 39 39 39 39 38 38 38 37 37 36 36 36 36 36 36 37 37 37 36 36 36 35 35 35 35 36 37 37 36 36 35 35 34
43 42 41 40 40 40 39 38 38 38 37 37 37 37 36 36 35 35 35 35 35 35 36 35 35 35 35 35 34 34 33 33 33 33 34 34 35 35 34 34 33 32 31
42 41 40 39 38 38 37 36 36 35 35 35 35 34 34 34 34 34 34 34 34 34 34 34 33 34 33 32 31 31 31 31 32 32 33 33 33 33 33 32 31 30 28
40 39 38 37 37 37 36 35 35 34 34 34 33 33 32 33 33 33 33 33 33 33 32 32 32 32 31 30 30 31 31 30 30 31 32 32 32 31 31 30 28 27 26
Wind_Direction
278 279 280 280 280 280 279 278 277 277 278 278 279 280 281 283 284 285 286 287 289 290 290 291 291 291 292 292 292 291 290 288 287 287 286 284 283 281 280 280 279 277 276
280 280 281 282 282 281 280 279 278 278 279 279 279 280 282 283 284 285 286 287 289 290 290 290 291 291 292 292 292 292 291 290 289 288 287 285 283 282 282 281 280 280 279
280 281 282 282 282 282 280 280 279 280 280 280 280 282 283 284 284 285 286 287 288 289 290 290 291 291 292 292 292 291 292 291 290 289 287 285 284 284 283 282 281 281 280
282 283 282 282 283 282 281 280 280 281 281 281 282 283 284 284 285 285 286 287 288 288 289 290 291 292 292 292 291 292 292 292 291 289 288 286 284 284 283 283 283 283 282
282 283 283 282 282 282 281 280 281 282 282 282 284 284 284 285 285 286 286 287 288 288 289 290 291 292 292 291 292 292 293 292 291 289 288 287 285 286 285 284 284 284 283
283 283 283 283 283 282 281 281 281 282 283 283 284 285 285 286 287 287 288 288 289 288 289 289 290 290 291 291 292 293 293 293 292 290 289 287 286 286 287 286 286 284 283
284 284 284 284 283 282 282 282 282 283 283 284 284 285 286 287 287 288 289 289 289 289 289 290 290 291 291 291 293 293 292 292 292 291 290 289 287 287 287 287 288 287 285
285 285 284 284 284 283 284 284 284 284 284 284 285 285 286 287 287 288 290 290 290 290 290 290 291 291 292 292 292 292 291 291 292 292 292 291 290 289 289 289 289 288 287
287 286 285 285 285 285 285 285 286 286 286 286 286 286 286 287 288 288 290 290 290 289 289 290 290 291 292 292 292 292 291 292 292 293 293 293 291 291 291 291 290 289 288
289 288 287 287 286 287 287 287 287 287 287 287 287 288 288 288 288 289 290 290 290 290 289 290 290 291 292 292 292 292 292 293 293 294 294 294 294 294 293 293 292 291 290
290 290 288 288 288 288 288 288 288 288 288 288 288 287 287 288 288 289 290 290 290 289 289 290 291 292 292 292 293 292 292 293 293 294 294 295 295 295 295 295 294 293 292
290 290 289 289 289 289 289 289 289 288 288 288 288 288 288 288 288 289 289 290 289 289 289 289 290 291 291 292 293 293 293 293 294 294 295 295 296 296 296 296 296 295 294
289 290 290 290 290 290 290 290 289 288 288 288 288 288 288 288 288 289 289 290 289 289 289 289 290 290 291 292 293 294 294 294 295 295 296 296 296 297 297 297 297 297 296
289 289 290 290 290 290 290 290 289 289 289 288 288 288 289 289 289 289 289 289 290 290 290 290 290 290 291 292 294 295 295 295 295 296 297 297 297 297 297 298 298 298 298
288 289 289 290 290 289 290 290 290 290 290 290 289 289 289 289 289 289 290 290 290 290 290 290 290 291 291 293 294 295 296 296 296 296 296 297 298 298 298 298 298 299 299
289 289 289 289 289 289 288 289 290 290 290 290 290 290 289 289 289 289 290 290 289 289 290 290 290 291 292 293 294 295 295 296 296 297 298 299 299 299 299 299 300 300 300
289 289 288 288 288 288 288 288 289 289 289 290 290 290 289 289 289 289 289 289 290 290 290 290 291 291 292 293 294 295 295 296 297 298 299 299 299 300 301 301 302 302 302
289 289 288 288 288 288 288 288 288 288 288 289 289 289 289 289 289 289 289 290 290 290 291 291 291 291 292 292 294 295 296 296 297 298 299 299 300 301 302 303 304 304 303
290 290 290 289 288 288 288 288 288 288 288 288 288 288 288 289 289 289 289 290 290 290 290 291 291 291 291 292 293 295 296 297 298 298 299 300 301 302 303 304 305 305 304
292 292 291 290 289 288 288 288 288 287 287 288 288 288 288 289 289 289 289 290 290 290 290 291 291 291 291 292 293 295 296 297 298 299 300 301 303 304 305 306 306 306 305
293 293 292 291 290 289 288 288 287 287 286 287 287 288 288 289 289 289 289 290 290 290 290 291 291 292 292 293 294 295 296 297 298 299 300 302 303 305 306 307 307 307 306
294 293 292 291 290 289 289 288 287 287 287 287 287 288 288 289 289 289 289 290 289 289 290 291 292 293 293 293 294 295 296 297 298 299 301 302 304 305 306 307 308 308 308
294 293 292 291 291 290 290 289 288 288 288 287 288 288 288 288 288 288 288 289 289 289 290 292 293 294 294 294 294 295 296 297 298 300 302 303 305 306 307 307 309 309 308
293 292 292 291 291 290 290 289 288 288 288 289 289 289 289 288 288 288 289 289 289 290 291 292 293 294 295 295 295 296 297 297 298 300 303 304 306 307 308 309 309 309 308
291 291 291 291 291 290 290 289 289 288 289 290 290 290 289 289 288 288 288 289 290 290 291 292 294 295 295 295 295 297 298 298 299 301 304 305 307 308 309 309 310 309 308
290 290 290 291 291 290 290 289 288 288 289 290 290 290 289 289 289 288 289 290 291 291 292 293 295 296 295 295 296 297 298 298 299 302 305 306 307 308 309 310 310 309 309
Height
5699 5698 5696 5695 5693 5692 5690 5689 5688 5687 5686 5685 5684 5683 5682 5681 5679 5678 5676 5673 5671 5668 5665 5663 5660 5657 5654 5650 5647 5644 5641 5638 5636 5634 5631 5629 5627 5625 5624 5622 5621 5619 5618
5690 5689 5687 5685 5684 5682 5681 5679 5678 5677 5676 5675 5674 5673 5672 5670 5669 5667 5665 5663 5660 5657 5655 5652 5649 5646 5643 5639 5636 5633 5630 5627 5625 5622 5619 5617 5615 5613 5611 5610 5608 5606 5605
5682 5680 5678 5677 5675 5673 5672 5670 5669 5668 5667 5666 5665 5663 5662 5660 5658 5656 5654 5652 5649 5647 5644 5641 5637 5634 5631 5628 5625 5621 5618 5615 5612 5610 5607 5605 5603 5601 5599 5597 5595 5594 5592
5673 5671 5670 5668 5666 5665 5663 5662 5660 5659 5658 5656 5655 5653 5652 5650 5648 5645 5643 5641 5638 5635 5632 5629 5626 5623 5620 5616 5613 5610 5606 5603 5600 5597 5595 5592 5590 5588 5586 5584 5583 5581 5579
5664 5662 5661 5659 5658 5656 5654 5653 5651 5650 5648 5647 5645 5643 5641 5639 5637 5634 5632 5630 5627 5624 5621 5618 5615 5611 5608 5605 5601 5598 5594 5591 5588 5585 5582 5580 5577 5575 5573 5571 5570 5568 5566
5655 5653 5652 5650 5648 5647 5645 5644 5642 5640 5638 5637 5635 5633 5631 5628 5626 5624 5621 5619 5616 5613 5610 5606 5603 5599 5596 5592 5589 5586 5583 5579 5576 5573 5570 5567 5565 5562 5560 5558 5556 5554 5553
5646 5644 5642 5641 5639 5637 5636 5634 5632 5630 5628 5626 5624 5622 5620 5617 5615 5612 5609 5607 5604 5601 5598 5594 5591 5587 5584 5580 5577 5573 5570 5567 5564 5561 5558 5554 5552 5549 5547 5545 5542 5539 5537
5637 5635 5633 5631 5629 5627 5626 5624 5622 5620 5618 5616 5613 5611 5609 5606 5603 5601 5598 5595 5592 5589 5586 5582 5579 5575 5572 5568 5565 5561 5558 5554 5551 5548 5545 5541 5538 5535 5532 5530 5527 5525 5522
5628 5625 5623 5621 5620 5618 5616 5614 5611 5609 5607 5605 5602 5600 5597 5595 5591 5589 5586 5583 5580 5577 5573 5570 5567 5563 5560 5556 5553 5550 5546 5542 5538 5535 5531 5528 5524 5521 5518 5515 5512 5509 5507
5618 5615 5613 5611 5609 5607 5605 5603 5601 5598 5596 5593 5591 5588 5585 5583 5580 5576 5573 5570 5567 5564 5561 5558 5554 5551 5547 5544 5540 5537 5533 5530 5526 5522 5519 5515 5511 5507 5503 5500 5496 5493 5489
5608 5605 5603 5601 5598 5596 5594 5591 5589 5586 5584 5581 5579 5576 5573 5570 5567 5564 5561 5558 5555 5552 5548 5545 5541 5538 5534 5531 5527 5524 5521 5517 5513 5510 5506 5502 5497 5493 5489 5485 5480 5476 5473
5597 5595 5592 5590 5587 5585 5582 5580 5577 5574 5571 5569 5566 5563 5560 5557 5554 5551 5548 5545 5542 5539 5536 5532 5528 5525 5522 5518 5515 5511 5508 5504 5501 5497 5493 5488 5484 5479 5475 5470 5465 5461 5456
5586 5583 5581 5578 5575 5573 5570 5567 5564 5561 5558 5556 5553 5550 5547 5544 5541 5537 5534 5531 5528 5525 5522 5519 5516 5512 5509 5506 5502 5498 5495 5491 5487 5483 5479 5475 5470 5466 5461 5456 5451 5447 5442
5574 5572 5569 5566 5563 5560 5557 5554 5551 5548 5546 5543 5540 5537 5534 5531 5528 5524 5521 5518 5515 5512 5509 5506 5503 5500 5496 5493 5489 5485 5482 5478 5474 5470 5466 5461 5457 5452 5448 5443 5439 5434 5429
5562 5559 5556 5553 5550 5548 5545 5541 5538 5536 5532 5530 5526 5523 5520 5518 5514 5511 5508 5505 5502 5499 5496 5494 5490 5487 5484 5480 5477 5473 5469 5465 5461 5457 5453 5449 5444 5440 5435 5430 5426 5421 5416
5549 5546 5543 5540 5537 5534 5532 5529 5525 5523 5520 5516 5513 5510 5507 5504 5501 5498 5495 5492 5489 5486 5484 5481 5478 5474 5471 5468 5464 5460 5456 5453 5449 5445 5440 5436 5432 5427 5422 5417 5412 5408 5403
5535 5532 5530 5527 5524 5521 5518 5515 5513 5510 5507 5503 5500 5497 5494 5491 5488 5485 5482 5479 5477 5474 5471 5468 5465 5462 5458 5455 5452 5448 5444 5441 5436 5432 5428 5424 5419 5415 5410 5405 5400 5395 5390
5521 5518 5515 5513 5510 5507 5504 5501 5499 5496 5494 5491 5487 5484 5481 5478 5475 5473 5470 5467 5464 5461 5459 5456 5452 5449 5446 5443 5440 5436 5432 5429 5424 5420 5416 5412 5407 5403 5398 5393 5387 5382 5377
5508 5504 5501 5498 5495 5493 5490 5487 5485 5482 5480 5478 5475 5471 5468 5466 5463 5460 5457 5455 5452 5449 5446 5443 5440 5437 5434 5431 5428 5424 5420 5417 5413 5408 5404 5400 5395 5391 5386 5381 5375 5370 5364
5494 5490 5487 5484 5481 5478 5476 5473 5471 5469 5466 5464 5462 5459 5456 5453 5451 5448 5445 5442 5439 5436 5433 5430 5427 5425 5422 5419 5416 5412 5409 5405 5401 5397 5393 5388 5384 5379 5374 5369 5364 5358 5353
5480 5476 5473 5470 5467 5464 5462 5460 5457 5455 5453 5451 5449 5446 5444 5441 5439 5436 5433 5430 5427 5424 5421 5418 5416 5413 5410 5407 5404 5401 5397 5394 5390 5386 5382 5378 5373 5368 5363 5358 5353 5347 5342
5466 5463 5459 5456 5453 5451 5449 5446 5444 5442 5440 5438 5436 5433 5431 5429 5426 5424 5421 5418 5415 5413 5410 5407 5405 5402 5399 5396 5393 5389 5386 5383 5379 5375 5371 5367 5362 5358 5353 5348 5342 5338 5333
5453 5449 5446 5443 5441 5438 5436 5434 5432 5430 5428 5425 5423 5421 5419 5416 5414 5411 5409 5406 5404 5401 5399 5396 5393 5390 5387 5384 5381 5378 5375 5372 5369 5365 5361 5357 5352 5347 5343 5338 5333 5328 5323
5440 5437 5434 5431 5428 5426 5424 5422 5419 5417 5415 5413 5411 5409 5407 5404 5402 5400 5398 5395 5393 5391 5388 5385 5382 5379 5376 5373 5370 5367 5365 5362 5358 5355 5351 5347 5343 5338 5333 5329 5324 5319 5315
5427 5424 5421 5419 5416 5414 5412 5410 5408 5406 5404 5402 5400 5398 5395 5393 5391 5389 5387 5385 5382 5380 5377 5375 5372 5369 5366 5363 5360 5358 5355 5352 5349 5345 5342 5338 5334 5329 5325 5320 5316 5311 5307
5414 5411 5409 5407 5405 5403 5401 5399 5397 5395 5393 5391 5389 5387 5385 5383 5381 5379 5376 5374 5372 5369 5367 5364 5362 5359 5356 5353 5351 5348 5345 5342 5339 5336 5333 5329 5325 5321 5317 5313 5308 5304 5300